Terug naar catalogus

MERIDIAN 8

ActiefMilitairHEO
NORAD 44453·PAYLOAD·🇷🇺 Russia

Gelanceerd Jul 30, 2019 vanaf Plesetsk Cosmodrome

Loading…

Volgende Passages (komende 24 uur)

TLE

VersSource: Space-Track

Epoch: Sep 10, 2026, 23:03 UTC

1 44453U 19046A   26253.96083012  .00000128  00000-0  00000+0 0  9997
2 44453  63.2222  39.6155 7095713 275.0560  14.6117  2.00607200 52065

Volg MERIDIAN 8 in realtime met AllMySat

Download on the App Store